Torna al catalogo

COSMOS 2251 DEB

AttivoLEO
NORAD 34760·DEBRIS·🇷🇺 Russia

Lanciato Jun 16, 1993 da Plesetsk Cosmodrome

Loading…

Prossimi Passaggi (prossime 24 ore)

TLE

AggiornatoSource: Space-Track

Epoca: Sep 14, 2026, 05:25 UTC

1 34760U 93036AAE 26257.22587897  .00000437  00000-0  20671-3 0  9994
2 34760  74.0635 170.4817 0096340 157.5040 355.6827 14.20094512905984

Traccia COSMOS 2251 DEB in tempo reale con AllMySat

Download on the App Store